Location: Bougoudala
(13.2282°N, 4.9477°W)
Time: 20:11:08
(UTC+00:00)

NOSS 3-2 (A) - Pass Details

Date: 29 January 2020
Orbit: 809 x 1399 km, 63.4° (Epoch: 20 February)

Event Time Altitude Azimuth Distance (km) Brightness Sun altitude
Rises 18:29:53 0° 219° (SW) 3,320 7.4 -3.3°
Reaches altitude 10° 18:32:24 10° 226° (SW) 2,383 6.8 -3.9°
Maximum altitude 18:37:29 42° 296° (WNW) 1,158 4.4 -5.1°
Drops below altitude 10° 18:42:51 10° 7° (N) 2,505 5.4 -6.4°
Sets 18:45:34 0° 14° (NNE) 3,509 6.1 -7.0°
